Regional Weather Roundup
Issued by NWS Little Rock, AR

Home | Current Version | Previous Version | Text Only | Print | Product List | Glossary Off
Versions: 1 2 3 4 5 6 7 8 9 10 11 12 13 14 15 16 17 18 19 20 21 22 23 24 25 26 27 28 29 30 31 32

000
ASUS44 KLZK 241905
RWRLZK

WEATHER ROUNDUP FOR ARKANSAS
NATIONAL WEATHER SERVICE LITTLE ROCK AR
200 PM CDT SUN SEP 24 2017

NOTE: "FAIR" INDICATES FEW OR NO CLOUDS BELOW 12,000 FEET WITH NO
SIGNIFICANT WEATHER AND/OR OBSTRUCTIONS TO VISIBILITY.

ARZ001-003-010-029-242000-
NORTHWEST ARKANSAS

CITY           SKY/WX    TMP DP  RH WIND       PRES   REMARKS
FAYETTEVILLE   MOSUNNY   85  67  54 SE7       30.00F HX  87
FORT SMITH     SUNNY     91  65  41 S6        29.94F HX  93
HARRISON       MOSUNNY   89  63  41 SE13G18   30.01F HX  90
BENTONVILLE    MOSUNNY   86  65  49 S13       30.01F HX  88
ROGERS         PTSUNNY   87  66  49 S6        30.01F HX  89
SILOAM SPGS    SUNNY     88  66  48 S12       29.99  HX  90
SPRINGDALE     MOSUNNY   86  64  48 S9G16     30.02F HX  87
$$

ARZ004-005-016-242000-
NORTH CENTRAL ARKANSAS

CITY           SKY/WX    TMP DP  RH WIND       PRES   REMARKS
BATESVILLE     PTSUNNY   91  67  44 S9        29.99F HX  94
FLIPPIN        CLOUDY    90  66  45 CALM      29.99F HX  92
MTN HOME       SUNNY     88  65  46 S9        29.99F HX  90
$$

ARZ040-041-242000-
WEST CENTRAL ARKANSAS

CITY           SKY/WX    TMP DP  RH WIND       PRES   REMARKS
MENA           MOSUNNY   90  64  43 CALM      29.98F HX  91
MOUNT IDA      PTSUNNY   90  62  39 VRB5      29.95F HX  90
$$

ARZ009-017-025-026-028-242000-
NORTHEAST ARKANSAS

CITY           SKY/WX    TMP DP  RH WIND       PRES   REMARKS
CORNING        FAIR      91  72  52 SW7       29.97F HX  98
JONESBORO      MOSUNNY   93  69  45 CALM      29.97F HX  98
NEWPORT        MOSUNNY   92  67  43 VRB5      29.98F HX  95
BLYTHEVILLE    SUNNY     90  69  50 S8        29.98F HX  94
$$

ARZ022-023-033-042-044-242000-
CENTRAL ARKANSAS

CITY           SKY/WX    TMP DP  RH WIND       PRES   REMARKS
LITTLE ROCK    MOSUNNY   90  68  48 SE8       29.96F HX  94
N LITTLE ROCK    N/A     90  67  46 S6        29.96F HX  93
JACKSONVILLE   MOSUNNY   91  69  47 SE3       29.96F HX  95
CONWAY           N/A     93  68  43 VRB7G14   29.94F HX  97
SEARCY         SUNNY     90  69  50 VRB6      29.99F HX  94
HOT SPRINGS    PTSUNNY   90  64  42 S6        29.96F HX  91
RUSSELLVILLE   MOSUNNY   90  66  45 S6        29.95F HX  92
CLINTON        PTSUNNY   90  68  48 CALM      29.98F HX  93
$$

ARZ036-242000-
EAST ARKANSAS

CITY           SKY/WX    TMP DP  RH WIND       PRES   REMARKS
WEST MEMPHIS   MOSUNNY   91  69  48 S9        29.97F HX  96
$$

ARZ050-053-066-070-073-242000-
SOUTHWEST ARKANSAS

CITY           SKY/WX    TMP DP  RH WIND       PRES   REMARKS
ARKADELPHIA    MOCLDY    90  68  48 CALM      29.95F HX  94
CAMDEN         MOSUNNY   95  64  36 CALM      29.94F HX  97
TEXARKANA      SUNNY     89  66  46 VRB6      29.94F HX  91
EL DORADO      MOSUNNY   90  67  46 SE3       29.96F HX  93
DE QUEEN       MOSUNNY   90  69  50 VRB6      29.92F HX  94
$$

ARZ056-057-069-242000-
SOUTHEAST ARKANSAS

CITY           SKY/WX    TMP DP  RH WIND       PRES   REMARKS
PINE BLUFF     PTSUNNY   90  66  45 VRB5      29.96F HX  92
STUTTGART      SUNNY     90  64  42 SE12      29.97F HX  91
MONTICELLO     MOSUNNY   89  67  47 VRB5      29.96F HX  92

$$






USA.gov is the U.S. government's official web portal to all federal, state and local government web resources and services.